This demonstration page uses our WeatherBlox Daily Observations layout. Learn more.

Left ArrowRight Arrow

Hourly Observations for January 23, 2020

Temp ( °F °C ) Dew Point ( °F °C ) Humidity (%) Winds ( mph kmh ) Pressure ( in mb ) Visibility ( mi km ) Precip ( " mm )
12:53 am 00:53 Cloudy 43 6.1 14 -10 31 31 E 9 15 30.28 1025 10 16 0.00 0.00
1:53 am 01:53 Clear 42 5.6 15 -9.4 33 33 E 14 22 30.26 1025 10 16 0.00 0.00
2:53 am 02:53 Clear 42 5.6 14 -10 32 32 E 10 17 30.26 1025 10 16 0.00 0.00
3:53 am 03:53 Clear 40 4.4 16 -8.9 38 38 ENE 10 17 30.24 1024 10 16 0.00 0.00
4:53 am 04:53 Mostly Cloudy 40 4.4 15 -9.4 36 36 ENE 12 19 30.25 1024 10 16 0.00 0.00
5:53 am 05:53 Cloudy 40 4.4 16 -8.9 38 38 NE 12 19 30.25 1024 10 16 0.00 0.00
6:53 am 06:53 Cloudy 40 4.4 17 -8.3 40 40 ENE 9 15 30.27 1025 10 16 0.00 0.00
7:53 am 07:53 Cloudy with Heavy Rain 37 2.8 24 -4.4 59 59 ENE 16 26 30.26 1025 5 8 0.03 0.76
8:53 am 08:53 Cloudy 36 2.2 28 -2.2 73 73 NE 5 7 30.26 1025 10 16 0.02 0.51
9:53 am 09:53 Cloudy with Light Rain 37 2.8 32 0 82 82 NE 5 7 30.28 1026 10 16 0.04 1.02
10:53 am 10:53 Cloudy with Light Rain 39 3.9 33 0.6 79 79 NNE 5 7 30.28 1025 10 16 0.02 0.51
11:53 am 11:53 Cloudy with Light Rain 43 6.1 32 0 65 65 ENE 12 19 30.23 1024 10 16 0.00 0.00
12:53 pm 12:53 Cloudy with Light Rain 45 7.2 31 -0.6 58 58 E 6 9 30.19 1022 10 16 0.00 0.00
4:07 pm 16:07 Cloudy 48 8.9 34 1.1 58 58 E 7 11 30.12 1020 10 16 0.00 0.00
6:30 pm 18:30 Cloudy 48 8.9 34 1.1 58 58 E 8 13 30.10 1019 10 16 0.00 0.00
6:53 pm 18:53 Cloudy 48 8.9 34 1.1 58 58 E 9 15 30.10 1019 10 16 0.00 0.00
7:53 pm 19:53 Cloudy 47 8.3 34 1.1 61 61 E 8 13 30.10 1019 10 16 0.00 0.00
8:16 pm 20:16 Cloudy with Light Rain 47 8.3 32 0 56 56 E 10 17 30.11 1020 10 16 0.00 0.00
8:53 pm 20:53 Cloudy with Light Rain 45 7.2 35 1.7 68 68 E 8 13 30.09 1019 10 16 0.03 0.76
9:53 pm 21:53 Cloudy with Rain 43 6.1 37 2.8 80 80 ENE 7 11 30.09 1019 9 14 0.02 0.51
10:53 pm 22:53 Cloudy with Rain 42 5.6 37 2.8 82 82 E 6 9 30.10 1019 6 10 0.06 1.52
11:53 pm 23:53 Cloudy with Rain 42 5.6 38 3.3 85 85 E 3 6 30.10 1019 7 11 0.13 3.30

Powered by AerisWeather